Regional Weather Roundup
Issued by NWS

Home | Current Version | Previous Version | Graphics & Text | Print | Product List | Glossary Off
Versions: 1 2 3 4 5 6 7 8 9 10 11 12 13 14 15 16 17 18 19 20 21 22 23 24 25 26 27 28 29 30 31 32 33 34 35 36 37 38 39 40 41 42 43 44 45 46

000
ASUS45 KCYS 280210
RWRWY

WYOMING REGIONAL WEATHER ROUNDUP
NATIONAL WEATHER SERVICE CHEYENNE WY
800 PM MDT THU AUG 27 2015

NOTE:  "FAIR" INDICATES FEW OR NO CLOUDS BELOW 12,000 FEET
WITH NO SIGNIFICANT WEATHER AND/OR OBSTRUCTIONS TO VISIBILITY.

WYZ001-280300-
YELLOWSTONE NATIONAL PARK

CITY           SKY/WX    TMP DP  RH WIND       PRES   REMARKS
LK YELLOWSTONE   N/A     49  47  93 CALM      30.43R
W YELLOWSTONE  NOT AVBL

$$
WYZ002>013-054>058-071-098>099-280300-
NORTHERN WYOMING

CITY           SKY/WX    TMP DP  RH WIND       PRES   REMARKS
JACKSON        CLEAR     66  46  48 W9        30.29S
CODY           MOCLDY    63  48  59 SW23G29   30.19F
GREYBULL       FAIR      71  46  40 E10       30.13S HAZE
WORLAND        TSTM      62  56  80 N6        30.20R
SHERIDAN       FAIR      72  50  45 CALM      30.06S
BUFFALO        MOCLDY    73  41  31 N21G31    30.14R
GILLETTE       FAIR      68  49  50 W7        30.05R
HULETT         FAIR      72  55  56 S3        30.06R
NEWCASTLE      FAIR      73  45  35 NE3       30.05R

$$
WYZ014>020-022>026-101>103-280300-
CENTRAL WYOMING

CITY           SKY/WX    TMP DP  RH WIND       PRES   REMARKS
BIG PINEY      FAIR      65  40  39 SW6       30.32S
PINEDALE       FAIR      66  45  45 NW5       30.33R
DUBOIS         TSTM      55  45  67 S5        30.38R
LANDER         FAIR      72  46  39 CALM      30.19R
RIVERTON       FAIR      70  44  39 N18G28    30.21R
CASPER         MOCLDY    70  47  43 SE7       30.15S
DOUGLAS        FAIR      71  47  42 W7        30.13R

$$
WYZ021-027>030-104>119-280300-
SOUTHERN WYOMING

CITY           SKY/WX    TMP DP  RH WIND       PRES   REMARKS
EVANSTON       FAIR      65  37  35 N7        30.35F
KEMMERER       FAIR      63  37  39 NW3       30.35S
FORT BRIDGER   CLEAR     64  37  36 W3        30.37S
ROCK SPRINGS   MOCLDY    62  47  57 N8        30.32R
DIXON          MOCLDY    65  42  41 CALM      30.29R
RAWLINS        FAIR      63  53  70 N3        30.27R
SARATOGA       FAIR      63  45  51 SW10      30.28S
LARAMIE        FAIR      61  49  64 NW6       30.27S
CHEYENNE       MOCLDY    69  49  48 N5        30.19S
TORRINGTON     MOCLDY    72  53  51 NE9       30.04S
PINE BLUFFS    MOCLDY    70  52  52 NW5       30.13R

$$


USA.gov is the U.S. government's official web portal to all federal, state and local government web resources and services.